Location: Agenbach
(47.2667°N, 11.4500°E)
Time: 07:32:48
(UTC+00:00)

STARLINK-1299 - Pass Details

Date: 07 June 2020
Orbit: 568 x 571 km, 53.0° (Epoch: 14 July)

Event Time Altitude Azimuth Distance (km) Brightness Sun altitude
Exits shadow 01:24:15 22° 229° (SW) 1,257 4.9 -14.0°
Maximum altitude 01:26:54 74° 148° (SSE) 596 3.7 -13.7°
Drops below altitude 10° 01:31:09 10° 64° (ENE) 1,875 7.3 -13.4°
Sets 01:33:25 0° 62° (ENE) 2,776 8.3 -13.2°
